Year,Month,Day,Hour,Minute,Value (Times are PST for temperature in C)
2008,06,15,00,00,10.30
2008,06,15,00,01,10.30
2008,06,15,00,02,10.20
2008,06,15,00,03,10.20
2008,06,15,00,04,10.20
2008,06,15,00,05,10.20
2008,06,15,00,06,10.20
2008,06,15,00,07,10.20
2008,06,15,00,08,10.20
2008,06,15,00,09,10.20
2008,06,15,00,10,10.20
2008,06,15,00,11,10.20
2008,06,15,00,12,10.20
2008,06,15,00,13,10.20
2008,06,15,00,14,10.20
2008,06,15,00,15,10.20
2008,06,15,00,16,10.20
2008,06,15,00,17,10.10
2008,06,15,00,18,10.10
2008,06,15,00,19,10.10
2008,06,15,00,20,10.10
2008,06,15,00,21,10.10
2008,06,15,00,22,10.10
2008,06,15,00,23,10.10
2008,06,15,00,24,10.10
2008,06,15,00,25,10.10
2008,06,15,00,26,10.10
2008,06,15,00,27,10.10
2008,06,15,00,28,10.00
2008,06,15,00,29,10.00
2008,06,15,00,30,10.00
2008,06,15,00,31,9.90
2008,06,15,00,32,9.90
2008,06,15,00,33,9.90
2008,06,15,00,34,9.90
2008,06,15,00,35,9.90
2008,06,15,00,36,9.90
2008,06,15,00,37,9.90
2008,06,15,00,38,9.90
2008,06,15,00,39,9.90
2008,06,15,00,40,9.90
2008,06,15,00,41,9.90
2008,06,15,00,42,9.90
2008,06,15,00,43,9.80
2008,06,15,00,44,9.80
2008,06,15,00,45,9.80
2008,06,15,00,46,9.80
2008,06,15,00,47,9.80
2008,06,15,00,48,9.80
2008,06,15,00,49,9.70
2008,06,15,00,50,9.70
2008,06,15,00,51,9.70
2008,06,15,00,52,9.70
2008,06,15,00,53,9.70
2008,06,15,00,54,9.70
2008,06,15,00,55,9.70
2008,06,15,00,56,9.70
2008,06,15,00,57,9.70
2008,06,15,00,58,9.70
2008,06,15,00,59,9.70
2008,06,15,01,00,9.60
2008,06,15,01,01,9.60
2008,06,15,01,02,9.60
2008,06,15,01,03,9.60
2008,06,15,01,04,9.60
2008,06,15,01,05,9.60
2008,06,15,01,06,9.50
2008,06,15,01,07,9.50
2008,06,15,01,08,9.50
2008,06,15,01,09,9.50
2008,06,15,01,10,9.50
2008,06,15,01,11,9.50
2008,06,15,01,12,9.40
2008,06,15,01,13,9.40
2008,06,15,01,14,9.40
2008,06,15,01,15,9.30
2008,06,15,01,16,9.30
2008,06,15,01,17,9.30
2008,06,15,01,18,9.30
2008,06,15,01,19,9.30
2008,06,15,01,20,9.20
2008,06,15,01,21,9.20
2008,06,15,01,22,9.20
2008,06,15,01,23,9.20
2008,06,15,01,24,9.20
2008,06,15,01,25,9.20
2008,06,15,01,26,9.20
2008,06,15,01,27,9.20
2008,06,15,01,28,9.20
2008,06,15,01,29,9.20
2008,06,15,01,30,9.10
2008,06,15,01,31,9.10
2008,06,15,01,32,9.10
2008,06,15,01,33,9.10
2008,06,15,01,34,9.10
2008,06,15,01,35,9.10
2008,06,15,01,36,9.10
2008,06,15,01,37,9.10
2008,06,15,01,38,9.00
2008,06,15,01,39,9.00
2008,06,15,01,40,9.00
2008,06,15,01,41,8.90
2008,06,15,01,42,8.90
2008,06,15,01,43,8.80
2008,06,15,01,44,8.80
2008,06,15,01,45,8.80
2008,06,15,01,46,8.80
2008,06,15,01,47,8.80
2008,06,15,01,48,8.80
2008,06,15,01,49,8.70
2008,06,15,01,50,8.70
2008,06,15,01,51,8.70
2008,06,15,01,52,8.70
2008,06,15,01,53,8.70
2008,06,15,01,54,8.70
2008,06,15,01,55,8.70
2008,06,15,01,56,8.70
2008,06,15,01,57,8.70
2008,06,15,01,58,8.70
2008,06,15,01,59,8.70
2008,06,15,02,00,8.70
2008,06,15,02,01,8.70
2008,06,15,02,02,8.60
2008,06,15,02,03,8.60
2008,06,15,02,04,8.60
2008,06,15,02,05,8.60
2008,06,15,02,06,8.60
2008,06,15,02,07,8.60
2008,06,15,02,08,8.60
2008,06,15,02,09,8.60
2008,06,15,02,10,8.60
2008,06,15,02,11,8.50
2008,06,15,02,12,8.50
2008,06,15,02,13,8.50
2008,06,15,02,14,8.50
2008,06,15,02,15,8.50
2008,06,15,02,16,8.40
2008,06,15,02,17,8.40
2008,06,15,02,18,8.50
2008,06,15,02,19,8.50
2008,06,15,02,20,8.50
2008,06,15,02,21,8.50
2008,06,15,02,22,8.60
2008,06,15,02,23,8.60
2008,06,15,02,24,8.60
2008,06,15,02,25,8.50
2008,06,15,02,26,8.50
2008,06,15,02,27,8.50
2008,06,15,02,28,8.40
2008,06,15,02,29,8.40
2008,06,15,02,30,8.40
2008,06,15,02,31,8.30
2008,06,15,02,32,8.30
2008,06,15,02,33,8.30
2008,06,15,02,34,8.30
2008,06,15,02,35,8.30
2008,06,15,02,36,8.30
2008,06,15,02,37,8.20
2008,06,15,02,38,8.30
2008,06,15,02,39,8.30
2008,06,15,02,40,8.20
2008,06,15,02,41,8.20
2008,06,15,02,42,8.20
2008,06,15,02,43,8.20
2008,06,15,02,44,8.20
2008,06,15,02,45,8.20
2008,06,15,02,46,8.20
2008,06,15,02,47,8.20
2008,06,15,02,48,8.10
2008,06,15,02,49,8.10
2008,06,15,02,50,8.10
2008,06,15,02,51,8.10
2008,06,15,02,52,8.10
2008,06,15,02,53,8.10
2008,06,15,02,54,8.00
2008,06,15,02,55,8.10
2008,06,15,02,56,8.10
2008,06,15,02,57,8.10
2008,06,15,02,58,8.10
2008,06,15,02,59,8.10
2008,06,15,03,00,8.10
2008,06,15,03,01,8.10
2008,06,15,03,02,8.10
2008,06,15,03,03,8.10
2008,06,15,03,04,8.10
2008,06,15,03,05,8.10
2008,06,15,03,06,8.00
2008,06,15,03,07,8.00
2008,06,15,03,08,8.00
2008,06,15,03,09,7.90
2008,06,15,03,10,7.90
2008,06,15,03,11,7.90
2008,06,15,03,12,7.80
2008,06,15,03,13,7.80
2008,06,15,03,14,7.80
2008,06,15,03,15,7.80
2008,06,15,03,16,7.80
2008,06,15,03,17,7.80
2008,06,15,03,18,7.70
2008,06,15,03,19,7.70
2008,06,15,03,20,7.70
2008,06,15,03,21,7.70
2008,06,15,03,22,7.70
2008,06,15,03,23,7.60
2008,06,15,03,24,7.60
2008,06,15,03,25,7.60
2008,06,15,03,26,7.60
2008,06,15,03,27,7.50
2008,06,15,03,28,7.50
2008,06,15,03,29,7.50
2008,06,15,03,30,7.50
2008,06,15,03,31,7.50
2008,06,15,03,32,7.50
2008,06,15,03,33,7.50
2008,06,15,03,34,7.40
2008,06,15,03,35,7.40
2008,06,15,03,36,7.40
2008,06,15,03,37,7.40
2008,06,15,03,38,7.40
2008,06,15,03,39,7.40
2008,06,15,03,40,7.40
2008,06,15,03,41,7.40
2008,06,15,03,42,7.40
2008,06,15,03,43,7.40
2008,06,15,03,44,7.40
2008,06,15,03,45,7.30
2008,06,15,03,46,7.30
2008,06,15,03,47,7.30
2008,06,15,03,48,7.30
2008,06,15,03,49,7.30
2008,06,15,03,50,7.40
2008,06,15,03,51,7.40
2008,06,15,03,52,7.40
2008,06,15,03,53,7.40
2008,06,15,03,54,7.40
2008,06,15,03,55,7.30
2008,06,15,03,56,7.30
2008,06,15,03,57,7.30
2008,06,15,03,58,7.30
2008,06,15,03,59,7.30
2008,06,15,04,00,7.30
2008,06,15,04,01,7.20
2008,06,15,04,02,7.20
2008,06,15,04,03,7.20
2008,06,15,04,04,7.20
2008,06,15,04,05,7.20
2008,06,15,04,06,7.20
2008,06,15,04,07,7.20
2008,06,15,04,08,7.10
2008,06,15,04,09,7.10
2008,06,15,04,10,7.10
2008,06,15,04,11,7.10
2008,06,15,04,12,7.10
2008,06,15,04,13,7.00
2008,06,15,04,14,7.00
2008,06,15,04,15,6.90
2008,06,15,04,16,6.90
2008,06,15,04,17,6.90
2008,06,15,04,18,6.90
2008,06,15,04,19,6.90
2008,06,15,04,20,6.80
2008,06,15,04,21,6.80
2008,06,15,04,22,6.80
2008,06,15,04,23,6.80
2008,06,15,04,24,6.80
2008,06,15,04,25,6.80
2008,06,15,04,26,6.80
2008,06,15,04,27,6.80
2008,06,15,04,28,6.80
2008,06,15,04,29,6.80
2008,06,15,04,30,6.80
2008,06,15,04,31,6.80
2008,06,15,04,32,6.80
2008,06,15,04,33,6.80
2008,06,15,04,34,6.80
2008,06,15,04,35,6.80
2008,06,15,04,36,6.80
2008,06,15,04,37,6.70
2008,06,15,04,38,6.70
2008,06,15,04,39,6.70
2008,06,15,04,40,6.60
2008,06,15,04,41,6.60
2008,06,15,04,42,6.60
2008,06,15,04,43,6.50
2008,06,15,04,44,6.50
2008,06,15,04,45,6.50
2008,06,15,04,46,6.40
2008,06,15,04,47,6.40
2008,06,15,04,48,6.40
2008,06,15,04,49,6.40
2008,06,15,04,50,6.40
2008,06,15,04,51,6.40
2008,06,15,04,52,6.40
2008,06,15,04,53,6.40
2008,06,15,04,54,6.50
2008,06,15,04,55,6.50
2008,06,15,04,56,6.50
2008,06,15,04,57,6.50
2008,06,15,04,58,6.50
2008,06,15,04,59,6.50
2008,06,15,05,00,6.50
2008,06,15,05,01,6.50
2008,06,15,05,02,6.60
2008,06,15,05,03,6.60
2008,06,15,05,04,6.60
2008,06,15,05,05,6.60
2008,06,15,05,06,6.60
2008,06,15,05,07,6.50
2008,06,15,05,08,6.50
2008,06,15,05,09,6.50
2008,06,15,05,10,6.50
2008,06,15,05,11,6.40
2008,06,15,05,12,6.40
2008,06,15,05,13,6.40
2008,06,15,05,14,6.40
2008,06,15,05,15,6.30
2008,06,15,05,16,6.30
2008,06,15,05,17,6.30
2008,06,15,05,18,6.20
2008,06,15,05,19,6.20
2008,06,15,05,20,6.20
2008,06,15,05,21,6.10
2008,06,15,05,22,6.10
2008,06,15,05,23,6.10
2008,06,15,05,24,6.10
2008,06,15,05,25,6.00
2008,06,15,05,26,6.00
2008,06,15,05,27,6.00
2008,06,15,05,28,6.00
2008,06,15,05,29,5.90
2008,06,15,05,30,5.90
2008,06,15,05,31,5.90
2008,06,15,05,32,5.90
2008,06,15,05,33,5.90
2008,06,15,05,34,5.90
2008,06,15,05,35,5.90
2008,06,15,05,36,5.90
2008,06,15,05,37,5.90
2008,06,15,05,38,5.90
2008,06,15,05,39,5.90
2008,06,15,05,40,5.90
2008,06,15,05,41,5.90
2008,06,15,05,42,5.90
2008,06,15,05,43,5.90
2008,06,15,05,44,5.90
2008,06,15,05,45,5.90
2008,06,15,05,46,6.00
2008,06,15,05,47,6.00
2008,06,15,05,48,6.00
2008,06,15,05,49,6.00
2008,06,15,05,50,6.10
2008,06,15,05,51,6.10
2008,06,15,05,52,6.20
2008,06,15,05,53,6.20
2008,06,15,05,54,6.30
2008,06,15,05,55,6.30
2008,06,15,05,56,6.30
2008,06,15,05,57,6.40
2008,06,15,05,58,6.40
2008,06,15,05,59,6.50
2008,06,15,06,00,6.50
2008,06,15,06,01,6.60
2008,06,15,06,02,6.60
2008,06,15,06,03,6.60
2008,06,15,06,04,6.70
2008,06,15,06,05,6.70
2008,06,15,06,06,6.70
2008,06,15,06,07,6.70
2008,06,15,06,08,6.80
2008,06,15,06,09,6.80
2008,06,15,06,10,6.80
2008,06,15,06,11,6.90
2008,06,15,06,12,6.90
2008,06,15,06,13,7.00
2008,06,15,06,14,7.00
2008,06,15,06,15,7.10
2008,06,15,06,16,7.20
2008,06,15,06,17,7.20
2008,06,15,06,18,7.20
2008,06,15,06,19,7.30
2008,06,15,06,20,7.30
2008,06,15,06,21,7.40
2008,06,15,06,22,7.40
2008,06,15,06,23,7.50
2008,06,15,06,24,7.50
2008,06,15,06,25,7.60
2008,06,15,06,26,7.60
2008,06,15,06,27,7.70
2008,06,15,06,28,7.70
2008,06,15,06,29,7.80
2008,06,15,06,30,7.80
2008,06,15,06,31,7.90
2008,06,15,06,32,7.90
2008,06,15,06,33,8.00
2008,06,15,06,34,8.00
2008,06,15,06,35,8.10
2008,06,15,06,36,8.10
2008,06,15,06,37,8.10
2008,06,15,06,38,8.20
2008,06,15,06,39,8.20
2008,06,15,06,40,8.30
2008,06,15,06,41,8.30
2008,06,15,06,42,8.40
2008,06,15,06,43,8.40
2008,06,15,06,44,8.50
2008,06,15,06,45,8.60
2008,06,15,06,46,8.60
2008,06,15,06,47,8.70
2008,06,15,06,48,8.70
2008,06,15,06,49,8.80
2008,06,15,06,50,8.80
2008,06,15,06,51,8.80
2008,06,15,06,52,8.80
2008,06,15,06,53,8.80
2008,06,15,06,54,8.90
2008,06,15,06,55,8.90
2008,06,15,06,56,8.90
2008,06,15,06,57,8.90
2008,06,15,06,58,9.00
2008,06,15,06,59,9.00
2008,06,15,07,00,9.10
2008,06,15,07,01,9.10
2008,06,15,07,02,9.10
2008,06,15,07,03,9.20
2008,06,15,07,04,9.20
2008,06,15,07,05,9.20
2008,06,15,07,06,9.30
2008,06,15,07,07,9.30
2008,06,15,07,08,9.30
2008,06,15,07,09,9.40
2008,06,15,07,10,9.40
2008,06,15,07,11,9.50
2008,06,15,07,12,9.50
2008,06,15,07,13,9.60
2008,06,15,07,14,9.60
2008,06,15,07,15,9.70
2008,06,15,07,16,9.80
2008,06,15,07,17,9.80
2008,06,15,07,18,9.90
2008,06,15,07,19,10.00
2008,06,15,07,20,10.00
2008,06,15,07,21,10.10
2008,06,15,07,22,10.10
2008,06,15,07,23,10.20
2008,06,15,07,24,10.20
2008,06,15,07,25,10.30
2008,06,15,07,26,10.40
2008,06,15,07,27,10.40
2008,06,15,07,28,10.50
2008,06,15,07,29,10.60
2008,06,15,07,30,10.70
2008,06,15,07,31,10.70
2008,06,15,07,32,10.80
2008,06,15,07,33,10.90
2008,06,15,07,34,10.90
2008,06,15,07,35,10.90
2008,06,15,07,36,11.00
2008,06,15,07,37,11.00
2008,06,15,07,38,11.00
2008,06,15,07,39,11.00
2008,06,15,07,40,11.10
2008,06,15,07,41,11.10
2008,06,15,07,42,11.20
2008,06,15,07,43,11.20
2008,06,15,07,44,11.30
2008,06,15,07,45,11.30
2008,06,15,07,46,11.40
2008,06,15,07,47,11.50
2008,06,15,07,48,11.60
2008,06,15,07,49,11.70
2008,06,15,07,50,11.70
2008,06,15,07,51,11.70
2008,06,15,07,52,11.80
2008,06,15,07,53,11.80
2008,06,15,07,54,11.80
2008,06,15,07,55,11.80
2008,06,15,07,56,11.80
2008,06,15,07,57,11.80
2008,06,15,07,58,11.80
2008,06,15,07,59,11.80
2008,06,15,08,00,11.80
2008,06,15,08,01,11.80
2008,06,15,08,02,11.80
2008,06,15,08,03,11.80
2008,06,15,08,04,11.90
2008,06,15,08,05,11.90
2008,06,15,08,06,12.00
2008,06,15,08,07,12.10
2008,06,15,08,08,12.10
2008,06,15,08,09,12.20
2008,06,15,08,10,12.30
2008,06,15,08,11,12.40
2008,06,15,08,12,12.50
2008,06,15,08,13,12.50
2008,06,15,08,14,12.60
2008,06,15,08,15,12.70
2008,06,15,08,16,12.70
2008,06,15,08,17,12.80
2008,06,15,08,18,12.80
2008,06,15,08,19,12.80
2008,06,15,08,20,12.90
2008,06,15,08,21,12.90
2008,06,15,08,22,13.00
2008,06,15,08,23,13.00
2008,06,15,08,24,13.10
2008,06,15,08,25,13.10
2008,06,15,08,26,13.20
2008,06,15,08,27,13.20
2008,06,15,08,28,13.20
2008,06,15,08,29,13.30
2008,06,15,08,30,13.30
2008,06,15,08,31,13.40
2008,06,15,08,32,13.50
2008,06,15,08,33,13.50
2008,06,15,08,34,13.60
2008,06,15,08,35,13.70
2008,06,15,08,36,13.80
2008,06,15,08,37,13.90
2008,06,15,08,38,14.00
2008,06,15,08,39,14.00
2008,06,15,08,40,14.10
2008,06,15,08,41,14.20
2008,06,15,08,42,14.30
2008,06,15,08,43,14.40
2008,06,15,08,44,14.40
2008,06,15,08,45,14.50
2008,06,15,08,46,14.60
2008,06,15,08,47,14.60
2008,06,15,08,48,14.70
2008,06,15,08,49,14.70
2008,06,15,08,50,14.80
2008,06,15,08,51,14.80
2008,06,15,08,52,14.80
2008,06,15,08,53,14.90
2008,06,15,08,54,14.80
2008,06,15,08,55,14.90
2008,06,15,08,56,14.90
2008,06,15,08,57,14.80
2008,06,15,08,58,14.90
2008,06,15,08,59,14.80
2008,06,15,09,00,14.80
2008,06,15,09,01,14.80
2008,06,15,09,02,14.80
2008,06,15,09,03,14.80
2008,06,15,09,04,14.80
2008,06,15,09,05,14.90
2008,06,15,09,06,14.90
2008,06,15,09,07,14.90
2008,06,15,09,08,15.00
2008,06,15,09,09,15.00
2008,06,15,09,10,15.00
2008,06,15,09,11,15.00
2008,06,15,09,12,15.10
2008,06,15,09,13,15.20
2008,06,15,09,14,15.30
2008,06,15,09,15,15.40
2008,06,15,09,16,15.50
2008,06,15,09,17,15.60
2008,06,15,09,18,15.60
2008,06,15,09,19,15.70
2008,06,15,09,20,15.70
2008,06,15,09,21,15.70
2008,06,15,09,22,15.80
2008,06,15,09,23,15.80
2008,06,15,09,24,15.80
2008,06,15,09,25,15.90
2008,06,15,09,26,15.90
2008,06,15,09,27,15.90
2008,06,15,09,28,15.90
2008,06,15,09,29,15.80
2008,06,15,09,30,15.80
2008,06,15,09,31,15.80
2008,06,15,09,32,15.80
2008,06,15,09,33,15.80
2008,06,15,09,34,15.80
2008,06,15,09,35,15.80
2008,06,15,09,36,15.80
2008,06,15,09,37,15.80
2008,06,15,09,38,15.90
2008,06,15,09,39,15.90
2008,06,15,09,40,15.90
2008,06,15,09,41,15.90
2008,06,15,09,42,15.80
2008,06,15,09,43,15.80
2008,06,15,09,44,15.80
2008,06,15,09,45,15.80
2008,06,15,09,46,15.80
2008,06,15,09,47,15.80
2008,06,15,09,48,15.70
2008,06,15,09,49,15.70
2008,06,15,09,50,15.70
2008,06,15,09,51,15.80
2008,06,15,09,52,15.80
2008,06,15,09,53,15.80
2008,06,15,09,54,15.80
2008,06,15,09,55,15.80
2008,06,15,09,56,15.90
2008,06,15,09,57,15.90
2008,06,15,09,58,16.00
2008,06,15,09,59,16.10
2008,06,15,10,00,16.20
2008,06,15,10,01,16.20
2008,06,15,10,02,16.20
2008,06,15,10,03,16.10
2008,06,15,10,04,16.10
2008,06,15,10,05,16.00
2008,06,15,10,06,15.90
2008,06,15,10,07,15.90
2008,06,15,10,08,15.90
2008,06,15,10,09,15.90
2008,06,15,10,10,15.90
2008,06,15,10,11,15.90
2008,06,15,10,12,16.00
2008,06,15,10,13,16.00
2008,06,15,10,14,16.10
2008,06,15,10,15,16.20
2008,06,15,10,16,16.40
2008,06,15,10,17,16.50
2008,06,15,10,18,16.60
2008,06,15,10,19,16.70
2008,06,15,10,20,16.70
2008,06,15,10,21,16.70
2008,06,15,10,22,16.70
2008,06,15,10,23,16.70
2008,06,15,10,24,16.80
2008,06,15,10,25,16.80
2008,06,15,10,26,16.90
2008,06,15,10,27,16.90
2008,06,15,10,28,16.90
2008,06,15,10,29,17.00
2008,06,15,10,30,17.00
2008,06,15,10,31,17.00
2008,06,15,10,32,17.10
2008,06,15,10,33,17.10
2008,06,15,10,34,17.20
2008,06,15,10,35,17.20
2008,06,15,10,36,17.30
2008,06,15,10,37,17.30
2008,06,15,10,38,17.40
2008,06,15,10,39,17.50
2008,06,15,10,40,17.50
2008,06,15,10,41,17.50
2008,06,15,10,42,17.60
2008,06,15,10,43,17.60
2008,06,15,10,44,17.70
2008,06,15,10,45,17.70
2008,06,15,10,46,17.70
2008,06,15,10,47,17.70
2008,06,15,10,48,17.70
2008,06,15,10,49,17.70
2008,06,15,10,50,17.70
2008,06,15,10,51,17.70
2008,06,15,10,52,17.60
2008,06,15,10,53,17.60
2008,06,15,10,54,17.60
2008,06,15,10,55,17.50
2008,06,15,10,56,17.50
2008,06,15,10,57,17.50
2008,06,15,10,58,17.60
2008,06,15,10,59,17.70
2008,06,15,11,00,17.70
2008,06,15,11,01,17.70
2008,06,15,11,02,17.50
2008,06,15,11,03,17.40
2008,06,15,11,04,17.30
2008,06,15,11,05,17.30
2008,06,15,11,06,17.30
2008,06,15,11,07,17.30
2008,06,15,11,08,17.30
2008,06,15,11,09,17.30
2008,06,15,11,10,17.40
2008,06,15,11,11,17.60
2008,06,15,11,12,17.80
2008,06,15,11,13,17.90
2008,06,15,11,14,18.00
2008,06,15,11,15,18.10
2008,06,15,11,16,18.10
2008,06,15,11,17,18.00
2008,06,15,11,18,18.00
2008,06,15,11,19,18.00
2008,06,15,11,20,17.90
2008,06,15,11,21,17.90
2008,06,15,11,22,18.00
2008,06,15,11,23,18.10
2008,06,15,11,24,18.00
2008,06,15,11,25,17.90
2008,06,15,11,26,17.80
2008,06,15,11,27,17.80
2008,06,15,11,28,17.80
2008,06,15,11,29,17.80
2008,06,15,11,30,17.90
2008,06,15,11,31,17.90
2008,06,15,11,32,17.90
2008,06,15,11,33,18.00
2008,06,15,11,34,18.40
2008,06,15,11,35,18.50
2008,06,15,11,36,18.60
2008,06,15,11,37,18.60
2008,06,15,11,38,18.60
2008,06,15,11,39,18.70
2008,06,15,11,40,18.70
2008,06,15,11,41,18.60
2008,06,15,11,42,18.50
2008,06,15,11,43,18.50
2008,06,15,11,44,18.60
2008,06,15,11,45,18.60
2008,06,15,11,46,18.60
2008,06,15,11,47,18.70
2008,06,15,11,48,18.80
2008,06,15,11,49,18.90
2008,06,15,11,50,18.80
2008,06,15,11,51,18.70
2008,06,15,11,52,18.60
2008,06,15,11,53,18.50
2008,06,15,11,54,18.60
2008,06,15,11,55,18.70
2008,06,15,11,56,18.70
2008,06,15,11,57,18.70
2008,06,15,11,58,18.60
2008,06,15,11,59,18.60
2008,06,15,12,00,18.50
2008,06,15,12,01,18.50
2008,06,15,12,02,18.60
2008,06,15,12,03,18.60
2008,06,15,12,04,18.70
2008,06,15,12,05,18.80
2008,06,15,12,06,18.80
2008,06,15,12,07,18.80
2008,06,15,12,08,18.80
2008,06,15,12,09,18.70
2008,06,15,12,10,18.70
2008,06,15,12,11,18.80
2008,06,15,12,12,18.80
2008,06,15,12,13,18.90
2008,06,15,12,14,18.90
2008,06,15,12,15,18.80
2008,06,15,12,16,18.80
2008,06,15,12,17,18.80
2008,06,15,12,18,18.70
2008,06,15,12,19,18.60
2008,06,15,12,20,18.60
2008,06,15,12,21,18.60
2008,06,15,12,22,18.70
2008,06,15,12,23,18.80
2008,06,15,12,24,18.90
2008,06,15,12,25,19.00
2008,06,15,12,26,19.10
2008,06,15,12,27,19.10
2008,06,15,12,28,19.00
2008,06,15,12,29,18.90
2008,06,15,12,30,18.80
2008,06,15,12,31,18.80
2008,06,15,12,32,18.90
2008,06,15,12,33,19.10
2008,06,15,12,34,19.00
2008,06,15,12,35,19.00
2008,06,15,12,36,19.10
2008,06,15,12,37,19.20
2008,06,15,12,38,19.20
2008,06,15,12,39,19.10
2008,06,15,12,40,19.10
2008,06,15,12,41,18.80
2008,06,15,12,42,18.70
2008,06,15,12,43,18.60
2008,06,15,12,44,18.60
2008,06,15,12,45,18.70
2008,06,15,12,46,18.80
2008,06,15,12,47,18.80
2008,06,15,12,48,18.90
2008,06,15,12,49,19.00
2008,06,15,12,50,19.10
2008,06,15,12,51,19.10
2008,06,15,12,52,19.10
2008,06,15,12,53,19.10
2008,06,15,12,54,19.10
2008,06,15,12,55,19.20
2008,06,15,12,56,19.30
2008,06,15,12,57,19.30
2008,06,15,12,58,19.30
2008,06,15,12,59,19.20
2008,06,15,13,00,19.20
2008,06,15,13,01,19.10
2008,06,15,13,02,19.00
2008,06,15,13,03,19.00
2008,06,15,13,04,19.00
2008,06,15,13,05,19.00
2008,06,15,13,06,19.10
2008,06,15,13,07,19.10
2008,06,15,13,08,19.20
2008,06,15,13,09,19.20
2008,06,15,13,10,19.20
2008,06,15,13,11,19.20
2008,06,15,13,12,19.00
2008,06,15,13,13,18.90
2008,06,15,13,14,18.80
2008,06,15,13,15,18.80
2008,06,15,13,16,18.90
2008,06,15,13,17,18.90
2008,06,15,13,18,18.90
2008,06,15,13,19,18.90
2008,06,15,13,20,18.90
2008,06,15,13,21,18.80
2008,06,15,13,22,18.80
2008,06,15,13,23,18.90
2008,06,15,13,24,18.90
2008,06,15,13,25,18.90
2008,06,15,13,26,18.90
2008,06,15,13,27,18.90
2008,06,15,13,28,18.80
2008,06,15,13,29,18.80
2008,06,15,13,30,18.90
2008,06,15,13,31,19.00
2008,06,15,13,32,19.10
2008,06,15,13,33,19.20
2008,06,15,13,34,19.30
2008,06,15,13,35,19.40
2008,06,15,13,36,19.30
2008,06,15,13,37,19.30
2008,06,15,13,38,19.30
2008,06,15,13,39,19.40
2008,06,15,13,40,19.50
2008,06,15,13,41,19.40
2008,06,15,13,42,19.30
2008,06,15,13,43,19.30
2008,06,15,13,44,19.30
2008,06,15,13,45,19.30
2008,06,15,13,46,19.30
2008,06,15,13,47,19.30
2008,06,15,13,48,19.20
2008,06,15,13,49,19.20
2008,06,15,13,50,19.30
2008,06,15,13,51,19.30
2008,06,15,13,52,19.30
2008,06,15,13,53,19.40
2008,06,15,13,54,19.50
2008,06,15,13,55,19.60
2008,06,15,13,56,19.70
2008,06,15,13,57,19.80
2008,06,15,13,58,19.80
2008,06,15,13,59,19.80
2008,06,15,14,00,19.90
2008,06,15,14,01,19.90
2008,06,15,14,02,19.80
2008,06,15,14,03,19.90
2008,06,15,14,04,20.00
2008,06,15,14,05,20.00
2008,06,15,14,06,20.00
2008,06,15,14,07,19.90
2008,06,15,14,08,19.90
2008,06,15,14,09,19.80
2008,06,15,14,10,19.70
2008,06,15,14,11,19.50
2008,06,15,14,12,19.40
2008,06,15,14,13,19.40
2008,06,15,14,14,19.50
2008,06,15,14,15,19.50
2008,06,15,14,16,19.60
2008,06,15,14,17,19.60
2008,06,15,14,18,19.60
2008,06,15,14,19,19.60
2008,06,15,14,20,19.70
2008,06,15,14,21,19.80
2008,06,15,14,22,19.80
2008,06,15,14,23,19.80
2008,06,15,14,24,19.80
2008,06,15,14,25,19.80
2008,06,15,14,26,19.80
2008,06,15,14,27,19.80
2008,06,15,14,28,19.90
2008,06,15,14,29,20.10
2008,06,15,14,30,20.10
2008,06,15,14,31,20.10
2008,06,15,14,32,20.00
2008,06,15,14,33,19.90
2008,06,15,14,34,20.00
2008,06,15,14,35,20.00
2008,06,15,14,36,20.10
2008,06,15,14,37,20.10
2008,06,15,14,38,20.10
2008,06,15,14,39,20.10
2008,06,15,14,40,20.10
2008,06,15,14,41,20.10
2008,06,15,14,42,20.10
2008,06,15,14,43,20.20
2008,06,15,14,44,20.20
2008,06,15,14,45,20.20
2008,06,15,14,46,20.20
2008,06,15,14,47,20.20
2008,06,15,14,48,20.20
2008,06,15,14,49,20.20
2008,06,15,14,50,20.20
2008,06,15,14,51,20.20
2008,06,15,14,52,20.10
2008,06,15,14,53,20.10
2008,06,15,14,54,20.20
2008,06,15,14,55,20.20
2008,06,15,14,56,20.20
2008,06,15,14,57,20.30
2008,06,15,14,58,20.30
2008,06,15,14,59,20.20
2008,06,15,15,00,20.30
2008,06,15,15,01,20.40
2008,06,15,15,02,20.40
2008,06,15,15,03,20.40
2008,06,15,15,04,20.40
2008,06,15,15,05,20.50
2008,06,15,15,06,20.50
2008,06,15,15,07,20.50
2008,06,15,15,08,20.50
2008,06,15,15,09,20.40
2008,06,15,15,10,20.40
2008,06,15,15,11,20.40
2008,06,15,15,12,20.40
2008,06,15,15,13,20.30
2008,06,15,15,14,20.30
2008,06,15,15,15,20.30
2008,06,15,15,16,20.30
2008,06,15,15,17,20.30
2008,06,15,15,18,20.30
2008,06,15,15,19,20.20
2008,06,15,15,20,20.10
2008,06,15,15,21,20.10
2008,06,15,15,22,20.00
2008,06,15,15,23,20.00
2008,06,15,15,24,20.00
2008,06,15,15,25,19.90
2008,06,15,15,26,19.90
2008,06,15,15,27,20.00
2008,06,15,15,28,20.00
2008,06,15,15,29,20.10
2008,06,15,15,30,20.00
2008,06,15,15,31,20.00
2008,06,15,15,32,20.00
2008,06,15,15,33,20.10
2008,06,15,15,34,20.10
2008,06,15,15,35,20.10
2008,06,15,15,36,20.00
2008,06,15,15,37,20.00
2008,06,15,15,38,20.00
2008,06,15,15,39,20.10
2008,06,15,15,40,20.10
2008,06,15,15,41,20.10
2008,06,15,15,42,20.10
2008,06,15,15,43,20.00
2008,06,15,15,44,20.00
2008,06,15,15,45,19.90
2008,06,15,15,46,19.90
2008,06,15,15,47,20.00
2008,06,15,15,48,20.00
2008,06,15,15,49,20.10
2008,06,15,15,50,20.20
2008,06,15,15,51,20.30
2008,06,15,15,52,20.20
2008,06,15,15,53,20.20
2008,06,15,15,54,20.20
2008,06,15,15,55,20.30
2008,06,15,15,56,20.30
2008,06,15,15,57,20.30
2008,06,15,15,58,20.30
2008,06,15,15,59,20.40
2008,06,15,16,00,20.30
2008,06,15,16,01,20.40
2008,06,15,16,02,20.50
2008,06,15,16,03,20.50
2008,06,15,16,04,20.50
2008,06,15,16,05,20.40
2008,06,15,16,06,20.40
2008,06,15,16,07,20.40
2008,06,15,16,08,20.50
2008,06,15,16,09,20.50
2008,06,15,16,10,20.40
2008,06,15,16,11,20.30
2008,06,15,16,12,20.30
2008,06,15,16,13,20.20
2008,06,15,16,14,20.30
2008,06,15,16,15,20.30
2008,06,15,16,16,20.30
2008,06,15,16,17,20.30
2008,06,15,16,18,20.30
2008,06,15,16,19,20.20
2008,06,15,16,20,20.30
2008,06,15,16,21,20.30
2008,06,15,16,22,20.30
2008,06,15,16,23,20.30
2008,06,15,16,24,20.30
2008,06,15,16,25,20.40
2008,06,15,16,26,20.40
2008,06,15,16,27,20.40
2008,06,15,16,28,20.40
2008,06,15,16,29,20.50
2008,06,15,16,30,20.40
2008,06,15,16,31,20.20
2008,06,15,16,32,20.30
2008,06,15,16,33,20.40
2008,06,15,16,34,20.40
2008,06,15,16,35,20.20
2008,06,15,16,36,20.10
2008,06,15,16,37,20.00
2008,06,15,16,38,19.90
2008,06,15,16,39,20.00
2008,06,15,16,40,20.00
2008,06,15,16,41,20.00
2008,06,15,16,42,20.00
2008,06,15,16,43,19.90
2008,06,15,16,44,19.90
2008,06,15,16,45,19.90
2008,06,15,16,46,19.90
2008,06,15,16,47,19.90
2008,06,15,16,48,20.00
2008,06,15,16,49,20.00
2008,06,15,16,50,20.00
2008,06,15,16,51,20.00
2008,06,15,16,52,20.00
2008,06,15,16,53,20.00
2008,06,15,16,54,20.00
2008,06,15,16,55,20.10
2008,06,15,16,56,20.10
2008,06,15,16,57,20.20
2008,06,15,16,58,20.20
2008,06,15,16,59,20.20
2008,06,15,17,00,20.20
2008,06,15,17,01,20.20
2008,06,15,17,02,20.30
2008,06,15,17,03,20.30
2008,06,15,17,04,20.30
2008,06,15,17,05,20.40
2008,06,15,17,06,20.40
2008,06,15,17,07,20.60
2008,06,15,17,08,20.60
2008,06,15,17,09,20.50
2008,06,15,17,10,20.40
2008,06,15,17,11,20.40
2008,06,15,17,12,20.30
2008,06,15,17,13,20.20
2008,06,15,17,14,20.20
2008,06,15,17,15,20.30
2008,06,15,17,16,20.30
2008,06,15,17,17,20.30
2008,06,15,17,18,20.20
2008,06,15,17,19,20.10
2008,06,15,17,20,20.10
2008,06,15,17,21,20.10
2008,06,15,17,22,20.10
2008,06,15,17,23,20.10
2008,06,15,17,24,20.20
2008,06,15,17,25,20.20
2008,06,15,17,26,20.20
2008,06,15,17,27,20.20
2008,06,15,17,28,20.20
2008,06,15,17,29,20.20
2008,06,15,17,30,20.10
2008,06,15,17,31,20.10
2008,06,15,17,32,20.20
2008,06,15,17,33,20.20
2008,06,15,17,34,20.20
2008,06,15,17,35,20.20
2008,06,15,17,36,20.10
2008,06,15,17,37,20.10